TimeCDT,TemperatureF,Dew PointF,Humidity,Sea Level PressureIn,VisibilityMPH,Wind Direction,Wind SpeedMPH,Gust SpeedMPH,PrecipitationIn,Events,Conditions,WindDirDegrees,DateUTC
12:13 AM,57.2,53.6,88,29.81,4.0,Calm,Calm,-,N/A,,Overcast,0,2012-10-24 05:13:00
12:34 AM,57.2,53.6,88,29.81,4.0,Calm,Calm,-,N/A,,Overcast,0,2012-10-24 05:34:00
1:13 AM,55.4,53.6,94,29.80,4.0,North,3.5,-,N/A,,Overcast,10,2012-10-24 06:13:00
1:34 AM,57.2,53.6,88,29.81,5.0,Calm,Calm,-,N/A,,Overcast,0,2012-10-24 06:34:00
1:53 AM,57.2,53.6,88,29.81,5.0,NNE,3.5,-,N/A,,Overcast,20,2012-10-24 06:53:00
2:13 AM,57.2,51.8,82,29.82,5.0,Calm,Calm,-,N/A,,Haze,0,2012-10-24 07:13:00
2:34 AM,57.2,51.8,82,29.80,5.0,NNE,3.5,-,N/A,,Haze,30,2012-10-24 07:34:00
2:53 AM,57.2,53.6,88,29.83,5.0,NNW,8.1,-,N/A,,Overcast,330,2012-10-24 07:53:00
3:13 AM,57.2,53.6,88,29.82,4.0,North,4.6,-,N/A,,Overcast,350,2012-10-24 08:13:00
3:33 AM,55.4,53.6,94,29.82,3.0,North,10.4,-,N/A,,Overcast,10,2012-10-24 08:33:00
3:53 AM,55.4,51.8,88,29.83,3.0,North,4.6,-,N/A,,Overcast,350,2012-10-24 08:53:00
4:14 AM,55.4,51.8,88,29.84,5.0,North,3.5,-,N/A,,Haze,350,2012-10-24 09:14:00
4:33 AM,55.4,51.8,88,29.84,7.0,Calm,Calm,-,N/A,,Overcast,0,2012-10-24 09:33:00
4:53 AM,55.4,51.8,88,29.85,7.0,NNW,8.1,-,N/A,,Overcast,330,2012-10-24 09:53:00
5:13 AM,55.4,51.8,88,29.84,7.0,NNW,5.8,-,N/A,,Overcast,340,2012-10-24 10:13:00
5:33 AM,55.4,51.8,88,29.84,5.0,NNW,10.4,-,N/A,,Overcast,330,2012-10-24 10:33:00
5:53 AM,55.4,51.8,88,29.84,5.0,North,6.9,-,N/A,,Overcast,350,2012-10-24 10:53:00
6:13 AM,55.4,51.8,88,29.84,5.0,North,10.4,-,N/A,,Overcast,0,2012-10-24 11:13:00
6:33 AM,55.4,51.8,88,29.84,5.0,North,13.8,-,N/A,,Overcast,10,2012-10-24 11:33:00
6:53 AM,53.6,51.8,94,29.83,5.0,North,13.8,-,N/A,,Overcast,10,2012-10-24 11:53:00
7:13 AM,53.6,50.0,88,29.83,5.0,North,11.5,-,N/A,,Overcast,0,2012-10-24 12:13:00
7:33 AM,53.6,50.0,88,29.84,5.0,North,15.0,-,N/A,,Overcast,10,2012-10-24 12:33:00
7:53 AM,53.6,50.0,88,29.83,5.0,North,13.8,-,N/A,,Overcast,0,2012-10-24 12:53:00
8:14 AM,51.8,50.0,94,29.83,3.0,North,15.0,-,N/A,,Overcast,0,2012-10-24 13:14:00
8:33 AM,51.8,48.2,88,29.82,2.5,North,18.4,23.0,N/A,,Overcast,0,2012-10-24 13:33:00
8:53 AM,51.8,50.0,94,29.83,2.5,North,12.7,18.4,N/A,,Overcast,0,2012-10-24 13:53:00
9:13 AM,50.0,48.2,94,29.86,0.5,North,9.2,17.3,N/A,Fog,Fog,350,2012-10-24 14:13:00
9:33 AM,50.0,46.4,87,29.87,1.2,North,8.1,-,N/A,,Overcast,350,2012-10-24 14:33:00
9:54 AM,50.0,46.4,87,29.87,4.0,North,8.1,-,N/A,,Overcast,350,2012-10-24 14:54:00
10:13 AM,50.0,44.6,82,29.86,5.0,North,13.8,18.4,N/A,,Overcast,0,2012-10-24 15:13:00
10:33 AM,50.0,44.6,82,29.86,5.0,North,10.4,-,N/A,,Overcast,350,2012-10-24 15:33:00
10:53 AM,50.0,44.6,82,29.84,4.0,North,10.4,16.1,N/A,Rain,Light Rain,0,2012-10-24 15:53:00
11:13 AM,50.0,46.4,87,29.84,4.0,North,9.2,-,N/A,,Overcast,350,2012-10-24 16:13:00
11:33 AM,50.0,46.4,87,29.83,3.0,North,13.8,18.4,N/A,,Overcast,0,2012-10-24 16:33:00
11:53 AM,48.2,44.6,87,29.82,3.0,North,12.7,-,N/A,,Overcast,350,2012-10-24 16:53:00
12:13 PM,50.0,46.4,87,29.82,4.0,North,9.2,18.4,N/A,,Overcast,350,2012-10-24 17:13:00
12:33 PM,50.0,44.6,82,29.82,4.0,North,10.4,18.4,N/A,,Overcast,350,2012-10-24 17:33:00
12:53 PM,50.0,46.4,87,29.81,3.0,North,11.5,-,N/A,,Overcast,350,2012-10-24 17:53:00
1:13 PM,48.2,44.6,87,29.80,1.5,North,11.5,18.4,N/A,,Overcast,350,2012-10-24 18:13:00
1:33 PM,48.2,44.6,87,29.79,2.0,North,13.8,21.9,N/A,,Overcast,0,2012-10-24 18:33:00
1:53 PM,48.2,44.6,87,29.79,2.0,North,13.8,17.3,N/A,,Overcast,350,2012-10-24 18:53:00
2:13 PM,48.2,44.6,87,29.78,1.5,North,13.8,-,N/A,,Overcast,350,2012-10-24 19:13:00
2:34 PM,46.4,44.6,93,29.79,2.0,NNW,13.8,20.7,N/A,,Overcast,340,2012-10-24 19:34:00
2:53 PM,46.4,44.6,93,29.78,2.0,NNW,15.0,20.7,N/A,,Overcast,340,2012-10-24 19:53:00
3:14 PM,46.4,44.6,93,29.78,2.5,NNW,15.0,24.2,N/A,,Overcast,340,2012-10-24 20:14:00
3:33 PM,46.4,42.8,87,29.79,1.8,NNW,13.8,20.7,N/A,,Overcast,340,2012-10-24 20:33:00
4:13 PM,46.4,42.8,87,29.79,1.5,North,12.7,17.3,N/A,,Overcast,350,2012-10-24 21:13:00
4:33 PM,46.4,42.8,87,29.79,1.5,NNW,16.1,23.0,N/A,Rain,Light Rain,340,2012-10-24 21:33:00
4:54 PM,46.4,42.8,87,29.78,1.5,NNW,13.8,25.3,N/A,,Overcast,340,2012-10-24 21:54:00
5:13 PM,46.4,42.8,87,29.79,1.8,NNW,13.8,23.0,N/A,,Overcast,340,2012-10-24 22:13:00
5:33 PM,44.6,42.8,93,29.79,1.8,NNW,13.8,20.7,N/A,,Overcast,340,2012-10-24 22:33:00
5:53 PM,44.6,42.8,93,29.79,2.0,North,12.7,20.7,N/A,,Overcast,350,2012-10-24 22:53:00
6:13 PM,44.6,42.8,93,29.79,3.0,NNW,11.5,16.1,N/A,,Overcast,340,2012-10-24 23:13:00
6:34 PM,44.6,41.0,87,29.79,4.0,NNW,13.8,21.9,N/A,,Overcast,340,2012-10-24 23:34:00
6:53 PM,44.6,41.0,87,29.79,3.0,North,13.8,19.6,N/A,,Overcast,350,2012-10-24 23:53:00
7:13 PM,44.6,41.0,87,29.80,3.0,North,10.4,18.4,N/A,,Overcast,350,2012-10-25 00:13:00
7:53 PM,44.6,41.0,87,29.80,4.0,North,11.5,-,0.01,,Overcast,350,2012-10-25 00:53:00
8:13 PM,44.6,41.0,87,29.80,5.0,North,16.1,21.9,N/A,,Overcast,0,2012-10-25 01:13:00
8:34 PM,44.6,41.0,87,29.80,7.0,North,13.8,18.4,N/A,,Overcast,350,2012-10-25 01:34:00
8:53 PM,44.6,41.0,87,29.79,10.0,North,15.0,-,N/A,,Overcast,0,2012-10-25 01:53:00
9:13 PM,44.6,41.0,87,29.80,10.0,North,11.5,24.2,N/A,,Overcast,350,2012-10-25 02:13:00
9:34 PM,44.6,39.2,81,29.80,10.0,North,13.8,25.3,N/A,,Overcast,350,2012-10-25 02:34:00
9:53 PM,44.6,39.2,81,29.80,10.0,North,15.0,23.0,N/A,,Overcast,350,2012-10-25 02:53:00
10:13 PM,42.8,39.2,87,29.81,10.0,NNW,17.3,26.5,N/A,,Overcast,340,2012-10-25 03:13:00
10:34 PM,42.8,37.4,81,29.82,7.0,NNW,21.9,28.8,N/A,,Overcast,330,2012-10-25 03:34:00
10:53 PM,42.8,37.4,81,29.80,5.0,NNW,13.8,28.8,N/A,,Overcast,340,2012-10-25 03:53:00
11:13 PM,42.8,37.4,81,29.80,7.0,North,16.1,21.9,N/A,,Overcast,350,2012-10-25 04:13:00
11:33 PM,42.8,37.4,81,29.79,7.0,North,13.8,23.0,N/A,,Overcast,350,2012-10-25 04:33:00
11:53 PM,42.8,37.4,81,29.77,10.0,North,19.6,26.5,N/A,,Overcast,0,2012-10-25 04:53:00